Fort Worth, TX

7:53 PM CDT on September 29, 2016 (GMT -0500)
Fort Worth Alliance

Weather History for KAFW - October, 2013

Change the Weather History Date:

Sunday, October 13, 2013

  Actual Average Record
Temperature  
Mean Temperature 68 °F -  
Max Temperature 73 °F 77 °F 93 °F (1999)
Min Temperature 64 °F 53 °F 42 °F (2006)
Cooling Degree Days 4    
Growing Degree Days 18 (Base 50)    
Moisture  
Dew Point 66 °F    
Average Humidity 86    
Maximum Humidity 100    
Minimum Humidity 78    
Precipitation  
Precipitation 0.00 in - - ()
Sea Level Pressure  
Sea Level Pressure 30.13 in    
Wind  
Wind Speed 4 mph (East)    
Max Wind Speed 10 mph    
Max Gust Speed -    
Visibility 8 miles    
Events Fog , Rain    
Averages and records for this station are not official NWS values.
T = Trace of Precipitation, MM = Missing Value Source: NWS Daily Summary

Daily Weather History Graph

Daily Weather History Graph

Search for Another Location

Airport or City:

Trip Planner

Search our weather history database for the weather conditions in past years. The results will help you decide how hot, cold, wet, or windy it might be!

Date:

Astronomy

Oct. 13, 2013 Rise Set
Actual Time 7:32 AM CDT 6:58 PM CDT
Civil Twilight 7:07 AM CDT 7:22 PM CDT
Nautical Twilight 6:38 AM CDT 7:51 PM CDT
Astronomical Twilight 6:10 AM CDT 8:20 PM CDT
Moon 3:35 PM CDT (10/13) 2:00 AM CDT (10/13)
Length of Visible Light 12h 15m
Length of Day
11h 25m
Waxing Gibbous, 69% of the Moon is Illuminated
Oct 13
Waxing Gibbous
Oct 18
Full
Oct 26
Last Quarter
Nov 3
New
Nov 9
First Quarter

Hourly Weather History & Observations

Time (CDT) Temp. Dew Point Humidity Pressure Visibility Wind Dir Wind Speed Gust Speed Precip Events Conditions
12:53 AM 68.0 °F 66.0 °F 93% 30.05 in 10.0 mi Calm Calm - N/A   Clear
1:53 AM 66.0 °F 64.9 °F 96% 30.04 in 10.0 mi Calm Calm - N/A   Clear
2:53 AM 66.0 °F 64.0 °F 93% 30.04 in 10.0 mi Calm Calm - N/A   Clear
3:22 AM 64.4 °F 62.6 °F 94% 30.10 in 7.0 mi Calm Calm - N/A   Mostly Cloudy
3:53 AM 66.0 °F 64.9 °F 96% 30.07 in 8.0 mi Calm Calm - N/A   Overcast
4:53 AM 69.1 °F 66.0 °F 90% 30.07 in 10.0 mi Calm Calm - N/A   Overcast
5:46 AM 69.8 °F 66.2 °F 88% 30.10 in 10.0 mi NE 3.5 mph - N/A   Overcast
5:53 AM 69.1 °F 66.0 °F 90% 30.07 in 10.0 mi NNE 3.5 mph - N/A   Overcast
6:53 AM 66.9 °F 66.0 °F 97% 30.09 in 10.0 mi NNE 5.8 mph - N/A   Partly Cloudy
7:53 AM 66.9 °F 64.9 °F 93% 30.12 in 7.0 mi NE 4.6 mph - N/A   Partly Cloudy
8:35 AM 66.2 °F 66.2 °F 100% 30.16 in 1.0 mi ENE 6.9 mph - N/A   Clear
8:39 AM 66.2 °F 66.2 °F 100% 30.17 in 0.5 mi ENE 6.9 mph - N/A   Clear
8:45 AM 68.0 °F 66.2 °F 94% 30.17 in 0.5 mi ENE 6.9 mph - N/A   Overcast
8:53 AM 68.0 °F 66.9 °F 96% 30.15 in 0.5 mi ENE 5.8 mph - N/A Fog Fog
9:15 AM 69.8 °F 66.2 °F 88% 30.18 in 4.0 mi ENE 5.8 mph - N/A   Overcast
9:28 AM 69.8 °F 66.2 °F 88% 30.19 in 4.0 mi East 8.1 mph - N/A   Overcast
9:53 AM 70.0 °F 66.9 °F 90% 30.17 in 8.0 mi ESE 8.1 mph - N/A   Overcast
10:53 AM 71.1 °F 66.9 °F 87% 30.18 in 9.0 mi ESE 8.1 mph - N/A   Overcast
11:53 AM 70.0 °F 66.0 °F 87% 30.19 in 7.0 mi SE 8.1 mph - N/A   Overcast
12:48 PM 73.4 °F 66.2 °F 78% 30.18 in 10.0 mi East 9.2 mph - N/A   Overcast
12:53 PM 73.0 °F 66.9 °F 81% 30.15 in 9.0 mi East 8.1 mph - N/A   Overcast
1:47 PM 73.4 °F 66.2 °F 78% 30.16 in 10.0 mi East 5.8 mph - N/A   Overcast
1:53 PM 73.0 °F 66.9 °F 81% 30.13 in 10.0 mi East 6.9 mph - N/A   Overcast
2:53 PM 73.0 °F 66.9 °F 81% 30.11 in 10.0 mi ESE 8.1 mph - N/A   Overcast
3:17 PM 73.4 °F 66.2 °F 78% 30.12 in 10.0 mi East 9.2 mph - N/A   Overcast
3:34 PM 73.4 °F 66.2 °F 78% 30.11 in 10.0 mi East 9.2 mph - N/A   Overcast
3:53 PM 73.9 °F 68.0 °F 82% 30.09 in 10.0 mi East 8.1 mph - 0.00 in   Overcast
4:31 PM 73.4 °F 66.2 °F 78% 30.12 in 9.0 mi East 6.9 mph - N/A   Overcast
4:53 PM 73.9 °F 68.0 °F 82% 30.09 in 10.0 mi ESE 5.8 mph - N/A   Mostly Cloudy
5:13 PM 73.4 °F 68.0 °F 83% 30.11 in 9.0 mi East 10.4 mph - N/A   Mostly Cloudy
5:35 PM 73.4 °F 66.2 °F 78% 30.12 in 10.0 mi ESE 10.4 mph - N/A   Overcast
5:53 PM 73.0 °F 66.0 °F 79% 30.11 in 10.0 mi East 9.2 mph - N/A   Overcast
6:12 PM 73.4 °F 66.2 °F 78% 30.13 in 10.0 mi East 6.9 mph - N/A   Overcast
6:38 PM 73.4 °F 66.2 °F 78% 30.14 in 10.0 mi ENE 5.8 mph - N/A   Overcast
6:53 PM 73.0 °F 66.0 °F 79% 30.12 in 10.0 mi East 6.9 mph - N/A   Overcast
7:45 PM 71.6 °F 66.2 °F 83% 30.15 in 10.0 mi East 6.9 mph - N/A   Overcast
7:53 PM 72.0 °F 66.0 °F 81% 30.13 in 10.0 mi East 6.9 mph - N/A   Overcast
8:36 PM 71.6 °F 66.2 °F 83% 30.16 in 10.0 mi East 9.2 mph - N/A   Scattered Clouds
8:53 PM 71.1 °F 66.0 °F 84% 30.14 in 10.0 mi ESE 8.1 mph - N/A   Scattered Clouds
9:35 PM 71.6 °F 64.4 °F 78% 30.18 in 10.0 mi East 6.9 mph - N/A   Mostly Cloudy
9:53 PM 72.0 °F 64.9 °F 78% 30.15 in 10.0 mi East 5.8 mph - N/A   Overcast
10:53 PM 71.1 °F 64.9 °F 81% 30.14 in 10.0 mi East 6.9 mph - N/A   Mostly Cloudy
11:29 PM 69.8 °F 64.4 °F 83% 30.15 in 10.0 mi ESE 5.8 mph - 0.00 in Rain Light Rain
11:48 PM 69.8 °F 64.4 °F 83% 30.15 in 10.0 mi East 3.5 mph - 0.00 in   Mostly Cloudy
11:53 PM 70.0 °F 66.0 °F 87% 30.12 in 10.0 mi East 3.5 mph - 0.00 in Rain Light Rain